VK2OU Weather Reports


Display with metric or nautical units.
time (UTC)temp
F
wind
direction
speed
MPH
gust
MPH
rain 1hr
in
rain 24hr
in
rain mn
in
humidity
%
barometer
mb
20260503235525 57 293 1.0 11.0 0.03 0.24 0.24 99
20260503235523 57 292 5.0 14.0 0.00 0.00 0.00 98
20260503234552 57 338 1.0 5.0 0.04 0.24 0.24 99
20260503234549 57 302 4.0 9.0 0.00 0.00 0.00 98
20260503233522 57 293 0.0 3.0 0.05 0.24 0.24 99
20260503233520 57 298 4.0 14.0 0.00 0.00 0.00 98
20260503232550 57 0.0 0.0 0.05 0.24 0.24 99
20260503231521 57 313 5.0 10.0 0.00 0.00 0.00 98
20260503230550 57 316 5.0 14.0 0.00 0.00 0.00 98
20260503225534 57 0.0 3.0 0.04 0.21 0.21 99
20260503225523 57 298 4.0 8.0 0.00 0.00 0.00 98
20260503224529 57 290 5.0 10.0 0.00 0.00 0.00 98
20260503224525 57 0.0 0.0 0.03 0.20 0.20 99
20260503223532 57 0.0 1.0 0.02 0.19 0.19 99
20260503223523 57 291 5.0 14.0 0.00 0.00 0.00 98
20260503222529 57 289 4.0 8.0 0.00 0.00 0.00 98
20260503222522 57 0.0 0.0 0.02 0.19 0.19 99
20260503221531 57 299 1.0 10.0 0.00 0.17 0.17 99
20260503221525 57 298 6.0 13.0 0.00 0.00 0.00 98
20260503220537 57 0.0 0.0 0.00 0.17 0.17 99
20260503220529 57 310 4.0 14.0 0.00 0.00 0.00 98
20260503215526 57 0.0 0.0 0.00 0.17 0.17 99
20260503215521 57 299 4.0 11.0 0.00 0.00 0.00 98
20260503214534 57 293 0.0 4.0 0.00 0.17 0.17 99
20260503214529 57 285 6.0 14.0 0.00 0.00 0.00 98
20260503213525 57 303 5.0 9.0 0.00 0.00 0.00 98
20260503212533 57 315 0.0 1.0 0.00 0.17 0.17 99
20260503211521 57 0.0 0.0 0.00 0.17 0.17 99
20260503210530 56 295 6.0 13.0 0.00 0.00 0.00 99
20260503205539 57 0.0 0.0 0.00 0.17 0.17 99
20260503205521 56 282 3.0 8.0 0.00 0.00 0.00 99
20260503204534 56 291 4.0 9.0 0.00 0.00 0.00 99
20260503204526 57 0.0 0.0 0.00 0.17 0.17 99
20260503203554 56 0.0 0.0 0.00 0.17 0.17 99
20260503203548 56 286 3.0 8.0 0.00 0.00 0.00 99
20260503202529 56 303 3.0 8.0 0.00 0.00 0.00 99
20260503202523 56 0.0 0.0 0.01 0.17 0.17 99
20260503201531 56 0.0 0.0 0.01 0.17 0.17 99
20260503201521 56 277 3.0 6.0 0.00 0.00 0.00 99
20260503200529 56 287 4.0 11.0 0.00 0.00 0.00 99
20260503200522 56 0.0 0.0 0.01 0.17 0.17 99
20260503195549 56 0.0 0.0 0.01 0.17 0.17 99
20260503195545 56 289 3.0 7.0 0.00 0.00 0.00 99
20260503194536 56 0.0 0.0 0.01 0.17 0.17 99
20260503194534 56 283 4.0 10.0 0.00 0.00 0.00 99
20260503193546 56 0.0 0.0 0.01 0.17 0.17 99
20260503193542 56 256 2.0 5.0 0.00 0.00 0.00 99
20260503192534 56 0.0 0.0 0.00 0.16 0.16 99
20260503192529 56 268 2.0 3.0 0.00 0.00 0.00 98
20260503191523 56 0.0 0.0 0.00 0.16 0.16 99
20260503191521 56 273 2.0 6.0 0.00 0.00 0.00 98
20260503190531 56 0.0 0.0 0.01 0.16 0.16 99
20260503190529 56 268 2.0 6.0 0.00 0.00 0.00 98
20260503185522 56 266 2.0 6.0 0.00 0.00 0.00 98
20260503184529 56 256 2.0 5.0 0.00 0.00 0.00 98
20260503183535 56 0.0 0.0 0.03 0.16 0.16 99
20260503183521 56 284 4.0 9.0 0.00 0.00 0.00 98
20260503182549 56 273 3.0 7.0 0.00 0.00 0.00 98
20260503182544 56 0.0 0.0 0.04 0.16 0.16 99
20260503181553 56 0.0 0.0 0.04 0.16 0.16 99
20260503181523 56 269 3.0 8.0 0.00 0.00 0.00 98
20260503180549 56 267 2.0 6.0 0.00 0.00 0.00 98
20260503180545 56 0.0 0.0 0.03 0.15 0.15 99
20260503175530 56 0.0 0.0 0.03 0.15 0.15 99
20260503175521 56 274 2.0 5.0 0.00 0.00 0.00 98
20260503174529 56 276 2.0 5.0 0.00 0.00 0.00 98
20260503174520 56 0.0 0.0 0.03 0.14 0.14 99
20260503173548 56 0.0 0.0 0.03 0.13 0.13 99
20260503173523 56 280 3.0 9.0 0.00 0.00 0.00 98
20260503172535 56 0.0 0.0 0.02 0.12 0.12 99
20260503172532 56 267 3.0 6.0 0.00 0.00 0.00 98
20260503171525 56 0.0 0.0 0.03 0.12 0.12 99
20260503171522 56 274 4.0 8.0 0.00 0.00 0.00 98
20260503170613 56 0.0 0.0 0.04 0.12 0.12 99
20260503150534 58 0.0 0.0 0.06 0.06 0.06 99
20260503150529 58 285 3.0 7.0 0.00 0.00 0.00 96
20260503130536 59 0.0 0.0 0.00 0.00 0.00 99
20260503130534 59 263 3.0 6.0 0.00 0.00 0.00 87
20260503110531 59 236 1.0 2.0 0.00 0.00 0.00 89
20260503081525 62 251 2.0 5.0 0.00 0.00 0.00 77
20260503081028 62 0.0 0.0 0.00 0.00 0.00 99
20260503080529 62 246 3.0 7.0 0.00 0.00 0.00 76
20260503072550 62 0.0 0.0 0.00 0.00 0.00 75
20260503071522 63 0.0 0.0 0.00 0.00 0.00 74
20260503070530 63 0.0 0.0 0.00 0.00 0.00 73
20260503054529 66 277 2.0 5.0 0.00 0.00 0.00 67
20260503053522 66 273 3.0 6.0 0.00 0.00 0.00 66
20260503052530 67 286 6.0 13.0 0.00 0.00 0.00 64
20260503051536 68 0.0 0.0 0.00 0.00 0.00 99
20260503051522 67 280 4.0 11.0 0.00 0.00 0.00 64
20260503050530 67 258 2.0 6.0 0.00 0.00 0.00 64
20260503050525 69 0.0 0.0 0.00 0.00 0.00 99
20260503045526 68 249 4.0 11.0 0.00 0.00 0.00 64
20260503044530 68 275 3.0 6.0 0.00 0.00 0.00 63
20260503044026 70 0.0 0.0 0.00 0.00 0.00 99
20260503043522 68 286 4.0 8.0 0.00 0.00 0.00 61
20260503043055 69 0.0 0.0 0.00 0.00 0.00 99
20260503042530 68 320 3.0 6.0 0.00 0.00 0.00 61
20260503042252 0 0.0 0.0 0.00 0.00 0.00
20260503041524 67 266 4.0 11.0 0.00 0.00 0.00 64
20260503041032 69 0.0 0.0 0.00 0.00 0.00 99
20260503040531 67 292 4.0 10.0 0.00 0.00 0.00 64
20260503040021 69 0.0 0.0 0.00 0.00 0.00 99
20260503035522 70 297 4.0 8.0 0.00 0.00 0.00 59
20260503034915 70 0.0 1.0 0.00 0.00 0.00 99
20260503034530 69 295 6.0 15.0 0.00 0.00 0.00 60
20260503033524 69 305 4.0 9.0 0.00 0.00 0.00 59
20260503032608 71 0.0 0.0 0.00 0.00 0.00 99
20260503032531 70 311 5.0 10.0 0.00 0.00 0.00 58
20260503031522 71 0.0 0.0 0.00 0.00 0.00 99
20260503030613 67 277 4.0 8.0 0.00 0.00 0.00 62
20260503030527 70 0.0 0.0 0.00 0.00 0.00 99
20260503025535 70 338 0.0 4.0 0.00 0.00 0.00 99
20260503025526 68 299 4.0 7.0 0.00 0.00 0.00 61
20260503024530 67 291 6.0 15.0 0.00 0.00 0.00 63
20260503024525 69 274 1.0 7.0 0.00 0.00 0.00 99
20260503023552 68 0.0 0.0 0.00 0.00 0.00 99
20260503023544 67 288 4.0 9.0 0.00 0.00 0.00 64
20260503022530 66 294 4.0 8.0 0.00 0.00 0.00 63
20260503022522 69 0.0 0.0 0.00 0.00 0.00 99
20260503021529 69 315 1.0 5.0 0.00 0.00 0.00 99
20260503021523 67 318 5.0 11.0 0.00 0.00 0.00 63
20260503020537 68 288 1.0 5.0 0.00 0.00 0.00 99
20260503020530 65 290 4.0 10.0 0.00 0.00 0.00 65
20260503015526 67 0.0 0.0 0.00 0.00 0.00 99
20260503014615 68 0.0 0.0 0.00 0.00 0.00 99
20260503014613 66 305 5.0 11.0 0.00 0.00 0.00 65
20260503013524 69 0.0 0.0 0.00 0.00 0.00 99
20260503013522 66 288 2.0 6.0 0.00 0.00 0.00 66
20260503012531 69 0.0 0.0 0.00 0.00 0.00 99
20260503011625 66 0.0 0.0 0.00 0.00 0.00 99
20260503010530 63 20 1.0 5.0 0.00 0.00 0.00 73
20260503005541 65 0.0 0.0 0.00 0.00 0.00 99
20260503005522 62 319 1.0 3.0 0.00 0.00 0.00 74
20260503004530 61 17 2.0 3.0 0.00 0.00 0.00 78
20260503004526 63 0.0 0.0 0.00 0.00 0.00 99
20260503003615 62 0.0 0.0 0.00 0.00 0.00 99
20260503003542 60 57 1.0 3.0 0.00 0.00 0.00 79
20260503002530 60 91 1.0 3.0 0.00 0.00 0.00 79
20260503002525 62 0.0 0.0 0.00 0.00 0.00 99
20260503001551 60 0.0 0.0 0.00 0.00 0.00 99
20260503001542 59 176 0.0 1.0 0.00 0.00 0.00 81
20260503000530 59 69 1.0 3.0 0.00 0.00 0.00 81
20260503000525 61 0.0 0.0 0.00 0.00 0.00 99